Regional Weather Roundup
Issued by NWS

Home | Current Version | Previous Version | Graphics & Text | Print | Product List | Glossary On
Versions: 1 2 3 4 5 6 7 8 9 10 11 12 13 14 15 16 17 18 19 20 21 22 23 24 25 26 27 28 29 30 31 32 33 34 35 36 37 38 39 40 41 42 43 44 45 46 47 48 49 50
000
ASUS43 KBIS 011301
RWRND

NORTH DAKOTA REGIONAL WEATHER ROUNDUP
NATIONAL WEATHER SERVICE BISMARCK ND
700 AM CST SUN MAR 01 2015

NOTE: "FAIR" INDICATES FEW OR NO CLOUDS BELOW 12,000 FEET WITH NO
SIGNIFICANT WEATHER AND/OR OBSTRUCTIONS TO VISIBILITY.


NDZ001>003-009>011-017-011400-
NORTHWEST NORTH DAKOTA

CITY           SKY/WX    TMP DP  RH WIND       PRES   REMARKS
WILLISTON      CLOUDY    15  10  80 CALM      30.18R
MINOT          CLEAR      9   3  77 W17       30.12R WCI  -9
$$

NDZ018>021-031>035-040>046-011400-
SOUTHWEST NORTH DAKOTA

CITY           SKY/WX    TMP DP  RH WIND       PRES   REMARKS
BISMARCK       PTCLDY     7   2  80 NW5       30.18S WCI  -2
DICKINSON      CLEAR     11   7  84 W13       30.12R WCI  -4
GARRISON         N/A      7   3  84 W13       30.13R WCI  -9
HETTINGER ARPT CLOUDY    13   8  81 W13       30.17R WCI  -2
$$

NDZ004>008-012>016-024-026-027-054-011400-
NORTHEAST NORTH DAKOTA

CITY           SKY/WX    TMP DP  RH WIND       PRES   REMARKS
GRAND FORKS    MOCLDY     2  -4  76 SW6       30.15S WCI  -9
DEVILS LAKE    MOCLDY     3  -6  66 W10       30.11R WCI -12
$$

NDZ022-023-025-028>030-036>039-047>053-011400-
SOUTHEAST NORTH DAKOTA

CITY           SKY/WX    TMP DP  RH WIND       PRES   REMARKS
FARGO          CLEAR      0  -6  76 SW7       30.20F WCI -13
JAMESTOWN      PTCLDY     7   0  73 W13       30.14S WCI  -9
$$



USA.gov is the U.S. government's official web portal to all federal, state and local government web resources and services.